CDT,Max TemperatureF,Mean TemperatureF,Min TemperatureF,Max Dew PointF,MeanDew PointF,Min DewpointF,Max Humidity, Mean Humidity, Min Humidity, Max Sea Level PressureIn, Mean Sea Level PressureIn, Min Sea Level PressureIn, Max VisibilityMiles, Mean VisibilityMiles, Min VisibilityMiles, Max Wind SpeedMPH, Mean Wind SpeedMPH, Max Gust SpeedMPH,PrecipitationIn, CloudCover, Events, WindDirDegrees
2014-4-1,49,38,26,28,21,15,63,51,39,30.11,30.00,29.84,10,10,10,29,14,36,0.00,4,,302
2014-4-2,48,41,33,38,31,26,82,68,53,30.12,30.00,29.86,10,10,7,23,15,32,0.01,7,Rain,74
2014-4-3,45,42,39,45,41,37,100,96,92,29.85,29.71,29.53,9,2,0,31,13,37,0.16,8,Fog-Rain-Thunderstorm,77
2014-4-4,42,37,31,42,30,25,100,80,59,30.16,29.83,29.54,10,9,1,35,19,43,0.01,8,,300
2014-4-5,55,40,24,29,26,22,92,62,32,30.24,30.16,30.09,10,10,6,13,6,18,0.00,1,,193
2014-4-6,62,50,37,34,32,29,70,51,32,30.08,29.98,29.89,10,10,10,17,8,22,0.00,5,,152
2014-4-7,64,51,37,44,36,31,86,60,34,29.88,29.77,29.70,10,10,10,26,9,32,0.01,3,Rain,13
2014-4-8,60,47,34,39,32,26,85,58,30,30.05,29.92,29.80,10,10,10,26,15,38,0.00,1,,321
2014-4-9,72,50,28,35,29,23,85,51,17,30.07,29.94,29.74,10,10,8,28,13,35,0.00,0,,212
2014-4-10,65,55,44,39,30,18,59,38,16,30.01,29.82,29.61,10,10,10,26,12,30,0.00,0,,319
2014-4-11,75,56,37,33,28,23,70,43,16,30.06,29.99,29.92,10,10,9,20,8,26,0.00,0,,202
2014-4-12,84,70,56,57,49,31,62,47,32,29.93,29.70,29.52,10,10,9,24,15,41,T,2,Rain-Thunderstorm,187
2014-4-13,66,53,39,61,54,39,93,87,80,29.67,29.55,29.43,10,6,2,33,16,41,1.29,7,Rain-Thunderstorm,101
2014-4-14,39,33,27,37,27,20,92,72,52,30.16,29.95,29.65,10,9,3,36,22,44,0.01,6,Rain-Snow,331
2014-4-15,45,34,22,24,19,17,81,59,36,30.23,30.16,30.08,10,10,10,18,8,23,0.00,1,,277
2014-4-16,62,50,37,32,28,23,59,44,29,30.07,29.96,29.86,10,10,10,38,21,47,0.00,1,,165
2014-4-17,52,44,36,37,32,30,85,65,44,30.30,30.20,29.99,10,10,10,21,12,25,0.00,4,,316
2014-4-18,65,48,30,34,30,27,89,58,26,30.38,30.30,30.21,10,9,5,15,7,19,0.00,0,,89
2014-4-19,76,59,42,43,38,28,76,53,29,30.24,30.16,30.07,10,10,5,25,14,37,0.00,0,,151
2014-4-20,82,68,54,48,45,39,64,47,30,30.10,30.04,29.96,10,10,10,23,12,28,0.00,0,,187
2014-4-21,71,60,49,60,55,39,97,75,52,30.01,29.94,29.88,10,8,2,26,11,31,0.16,6,Rain-Thunderstorm,260
2014-4-22,65,52,38,38,33,31,76,52,28,30.13,30.07,30.02,10,10,10,20,12,25,0.00,0,,358
2014-4-23,51,47,42,40,35,32,76,63,50,30.13,30.00,29.83,10,10,8,22,14,27,0.10,5,Rain,110
2014-4-24,55,51,46,51,45,34,100,75,50,29.85,29.70,29.64,10,6,2,22,13,29,1.13,6,Rain,170
2014-4-25,75,58,41,46,42,37,100,65,29,29.87,29.82,29.78,10,9,3,21,9,26,0.00,0,,248
2014-4-26,78,63,47,49,44,39,74,53,31,29.86,29.79,29.71,10,10,9,28,14,35,0.02,2,Rain-Thunderstorm,86
2014-4-27,78,62,45,59,49,35,93,73,52,29.78,29.59,29.46,10,8,0,45,19,59,0.94,5,Fog-Rain-Thunderstorm,102
2014-4-28,72,62,51,59,55,45,100,77,53,29.48,29.37,29.29,10,8,1,30,14,36,0.26,7,Rain-Thunderstorm,131
2014-4-29,56,47,38,49,44,35,93,80,66,29.73,29.53,29.38,10,7,2,22,9,28,0.54,8,Rain,274
2014-4-30,48,43,37,39,36,31,92,81,70,29.84,29.79,29.72,10,10,6,23,13,30,0.11,8,Rain,286